FW3072 Weather Reports


time (UTC)temp
C
wind
direction
speed
KPH
gust
KPH
rain 1hr
cm
rain 24hr
cm
rain mn
cm
humidity
%
barometer
mb
20260903120204 21 279 0.0 9.7 0.00 1.12 0.00 96 1013.8
20260903115246 21 359 1.6 8.0 0.00 1.12 0.00 96 1013.7
20260903114204 21 356 3.2 8.0 0.00 1.12 0.00 96 1013.5
20260903113203 20 335 3.2 9.7 0.00 1.12 0.00 96 1013.3
20260903112225 20 359 3.2 6.4 0.00 1.12 0.00 96 1013.2
20260903111203 20 360 0.0 3.2 0.00 1.12 0.00 95 1013.2
20260903110204 20 360 0.0 1.6 0.00 1.12 0.00 95 1013.0
20260903105203 20 359 0.0 1.6 0.00 1.12 0.00 95 1012.8
20260903104226 20 360 0.0 0.0 0.00 1.12 0.00 95 1012.5
20260903103227 20 360 0.0 1.6 0.00 1.12 0.00 95 1012.4
20260903102204 20 360 0.0 0.0 0.00 1.12 0.00 95 1012.5
20260903101248 20 360 0.0 0.0 0.00 1.12 0.00 95 1012.5
20260903100224 20 359 0.0 3.2 0.00 1.12 0.00 95 1012.3
20260903095204 20 360 0.0 0.0 0.00 1.12 0.00 95 1012.3
20260903094203 20 360 0.0 0.0 0.00 1.12 0.00 95 1012.2
20260903093204 20 360 0.0 1.6 0.00 1.12 0.00 95 1012.2
20260903092203 20 359 0.0 1.6 0.00 1.12 0.00 95 1011.9
20260903091204 20 360 0.0 0.0 0.00 1.12 0.00 95 1011.9
20260903090207 20 360 0.0 0.0 0.00 1.12 0.00 95 1011.9
20260903085203 20 360 0.0 0.0 0.00 1.12 0.00 95 1011.8
20260903084205 20 360 0.0 0.0 0.00 1.12 0.00 95 1011.8
20260903083204 20 360 0.0 0.0 0.00 1.12 0.00 95 1011.9
20260903082225 20 360 0.0 0.0 0.00 1.12 0.00 95 1011.9
20260903081205 20 360 0.0 3.2 0.00 1.12 0.00 95 1011.7
20260903080203 20 359 1.6 4.8 0.00 1.12 0.00 95 1011.7
20260903075204 20 360 0.0 4.8 0.00 1.12 0.00 95 1011.7
20260903074245 20 360 0.0 3.2 0.00 1.12 0.00 95 1011.6
20260903073224 20 359 0.0 4.8 0.00 1.12 0.00 95 1011.6
20260903072204 20 359 0.0 3.2 0.00 1.12 0.00 95 1011.6
20260903071204 21 359 0.0 3.2 0.00 1.12 0.00 95 1011.5
20260903070203 21 353 1.6 8.0 0.00 1.12 0.00 95 1011.6
20260903065204 21 359 1.6 12.9 0.00 1.12 0.00 95 1012.0
20260903064203 21 360 0.0 6.4 0.00 1.12 0.00 95 1012.0
20260903063204 21 359 1.6 6.4 0.00 1.12 0.00 95 1012.0
20260903062205 21 359 3.2 8.0 0.00 1.12 0.00 95 1012.1
20260903061203 21 359 0.0 6.4 0.00 1.12 0.00 95 1012.1
20260903060205 21 359 1.6 8.0 0.00 1.12 0.00 95 1012.0
20260903055203 20 359 1.6 6.4 0.00 1.12 0.00 95 1011.7
20260903054204 21 281 1.6 4.8 0.00 1.12 0.00 95 1011.7
20260903053203 21 350 1.6 9.7 0.00 1.12 0.00 95 1011.9
20260903051203 21 359 3.2 9.7 0.00 1.12 0.00 95 1011.7
20260903050204 21 359 3.2 9.7 0.00 1.12 0.00 95 1011.9
20260903045203 20 359 1.6 4.8 0.00 1.12 0.00 95 1011.9
20260903044203 20 359 0.0 4.8 0.00 1.12 0.00 95 1011.8
20260903042203 20 359 1.6 4.8 0.00 1.12 0.00 95 1011.4
20260903041204 20 359 0.0 8.0 0.00 1.12 0.00 95 1011.5
20260903040203 20 2 1.6 4.8 0.00 1.12 0.00 95 1011.3
20260903035205 20 359 0.0 1.6 0.00 1.14 1.14 95 1011.1
20260903034203 20 359 0.0 1.6 0.00 1.14 1.14 95 1011.1
20260903033205 20 359 0.0 3.2 0.00 1.14 1.14 95 1011.4
20260903032203 20 360 0.0 0.0 0.00 1.14 1.14 95 1011.3
20260903031204 20 360 0.0 3.2 0.00 1.14 1.14 95 1011.7
20260903030224 20 360 0.0 0.0 0.00 1.14 1.14 95 1012.2
20260903025203 20 360 0.0 1.6 0.00 1.14 1.14 95 1012.3
20260903024204 21 360 0.0 3.2 0.00 1.14 1.14 95 1012.0
20260903023204 21 359 0.0 3.2 0.00 1.14 1.14 95 1012.5
20260903022204 21 360 0.0 1.6 0.00 1.14 1.14 94 1012.8
20260903021203 21 359 0.0 3.2 0.00 1.14 1.14 94 1012.8
20260903020204 21 359 0.0 4.8 0.00 1.14 1.14 94 1012.6
20260903015225 21 359 1.6 4.8 0.25 1.14 1.14 94 1012.7
20260903014204 21 359 1.6 4.8 0.25 1.14 1.14 94 1012.6
20260903013203 21 360 0.0 3.2 0.23 1.12 1.12 94 1013.3
20260903012204 21 359 1.6 8.0 0.00 0.89 0.89 94 1013.0
20260903011203 21 360 0.0 3.2 0.00 0.89 0.89 94 1011.9
20260903010228 21 360 0.0 0.0 0.00 0.89 0.89 94 1012.2
20260903005204 21 360 0.0 3.2 0.08 0.86 0.86 94 1012.1
20260903004204 21 360 0.0 4.8 0.08 0.86 0.86 93 1011.1
20260903003207 21 359 1.6 4.8 0.08 0.86 0.86 93 1010.6
20260903002204 21 360 0.0 6.4 0.08 0.86 0.86 93 1011.2
20260903001225 21 359 1.6 8.0 0.03 0.81 0.81 93 1011.0
20260903000204 21 359 6.4 19.3 0.00 0.79 0.79 92 1010.9
20260902235204 21 0 8.0 22.5 0.58 0.74 0.74 92 1010.8
20260902234203 22 359 6.4 20.9 0.51 0.66 0.66 91 1011.4
20260902233204 22 359 8.0 25.7 0.43 0.58 0.58 91 1012.5
20260902232203 22 359 12.9 32.2 0.41 0.56 0.56 89 1012.7
20260902225202 26 359 6.4 17.7 0.00 0.00 0.00 87 1011.5
20260902224203 26 359 6.4 24.1 0.00 0.00 0.00 87 1010.5
20260902223202 26 358 6.4 16.1 0.00 0.00 0.00 87 1010.8
20260902222202 26 359 1.6 9.7 0.00 0.00 0.00 86 1010.7
20260902221202 27 359 1.6 14.5 0.00 0.00 0.00 86 1010.7
20260902220202 27 359 3.2 14.5 0.00 0.00 0.00 85 1010.6
20260902215202 27 359 0.0 3.2 0.00 0.00 0.00 85 1010.2
20260902214202 27 359 0.0 3.2 0.00 0.00 0.00 85 1009.8
20260902213203 27 360 0.0 3.2 0.00 0.00 0.00 86 1009.8
20260902212202 27 359 1.6 6.4 0.00 0.00 0.00 86 1010.3
20260902211203 27 359 3.2 4.8 0.00 0.00 0.00 87 1010.9
20260902210203 27 360 0.0 1.6 0.00 0.00 0.00 87 1011.0
20260902205202 27 356 1.6 8.0 0.00 0.00 0.00 87 1011.2
20260902204202 27 355 1.6 12.9 0.00 0.00 0.00 86 1011.4
20260902203203 27 359 0.0 9.7 0.00 0.00 0.00 86 1011.8
20260902202202 27 359 6.4 17.7 0.00 0.00 0.00 85 1012.1
20260902201203 27 359 3.2 14.5 0.00 0.00 0.00 84 1012.2
20260902200223 27 359 3.2 12.9 0.00 0.00 0.00 82 1012.4
20260902195204 28 359 3.2 20.9 0.00 0.00 0.00 81 1012.6
20260902194223 28 359 3.2 14.5 0.00 0.00 0.00 81 1012.9
20260902193223 28 359 1.6 12.9 0.00 0.00 0.00 80 1012.8
20260902192202 28 359 4.8 17.7 0.00 0.00 0.00 81 1012.9
20260902191224 28 359 8.0 22.5 0.00 0.00 0.00 81 1012.7
20260902190204 27 358 4.8 17.7 0.00 0.00 0.00 82 1012.9
20260902185203 27 357 3.2 19.3 0.00 0.00 0.00 80 1013.0
20260902184203 28 355 4.8 19.3 0.00 0.00 0.00 79 1012.8
20260902183203 27 359 11.3 20.9 0.00 0.00 0.00 80 1013.0
20260902182203 27 349 4.8 14.5 0.00 0.00 0.00 82 1013.0
20260902181202 27 359 3.2 9.7 0.00 0.00 0.00 85 1012.9
20260902180203 26 359 1.6 14.5 0.00 0.00 0.00 86 1012.8
20260902175203 26 359 1.6 14.5 0.00 0.00 0.00 89 1012.9
20260902174202 25 359 0.0 4.8 0.00 0.00 0.00 89 1013.1
20260902173204 25 359 1.6 8.0 0.00 0.00 0.00 89 1013.4
20260902172203 24 359 0.0 12.9 0.00 0.00 0.00 89 1013.5
20260902171202 24 359 1.6 4.8 0.00 0.00 0.00 87 1013.6
20260902170208 25 360 0.0 8.0 0.00 0.00 0.00 86 1014.0
20260902165202 25 359 0.0 17.7 0.00 0.00 0.00 85 1014.7
20260902164224 26 359 9.7 22.5 0.00 0.00 0.00 85 1015.0
20260902163204 26 359 3.2 9.7 0.00 0.00 0.00 85 1014.0
20260902162202 26 359 1.6 12.9 0.00 0.00 0.00 85 1013.5
20260902161203 26 359 4.8 12.9 0.00 0.00 0.00 85 1013.5
20260902160223 26 359 4.8 16.1 0.00 0.00 0.00 86 1013.6
20260902155206 26 359 3.2 12.9 0.00 0.00 0.00 86 1013.8
20260902154223 25 359 1.6 8.0 0.00 0.00 0.00 88 1013.9
20260902153202 25 359 0.0 14.5 0.00 0.00 0.00 90 1013.9
20260902152224 25 359 3.2 8.0 0.00 0.00 0.00 91 1014.1
20260902151204 24 358 4.8 14.5 0.00 0.00 0.00 93 1014.2
20260902150202 23 359 3.2 20.9 0.00 0.00 0.00 94 1014.3
20260902145206 23 359 4.8 9.7 0.00 0.00 0.00 95 1014.5
20260902144204 22 359 1.6 6.4 0.00 0.00 0.00 95 1014.6
20260902143203 22 360 0.0 0.0 0.00 0.00 0.00 95 1014.8
20260902142225 21 360 0.0 0.0 0.00 0.00 0.00 95 1014.9
20260902141223 21 360 0.0 0.0 0.00 0.00 0.00 95 1015.0
20260902140203 21 360 0.0 0.0 0.00 0.00 0.00 95 1015.0
20260902135202 21 360 0.0 0.0 0.00 0.00 0.00 95 1014.9
20260902134203 21 360 0.0 0.0 0.00 0.00 0.00 95 1014.9
20260902133202 21 360 0.0 0.0 0.00 0.00 0.00 95 1014.8
20260902132203 21 360 0.0 4.8 0.00 0.00 0.00 95 1014.6
20260902131202 21 359 3.2 6.4 0.00 0.00 0.00 95 1014.7
20260902130203 21 359 1.6 3.2 0.00 0.00 0.00 95 1015.0
20260902125202 20 359 1.6 6.4 0.00 0.00 0.00 95 1015.2
20260902124203 20 359 3.2 6.4 0.00 0.00 0.00 95 1015.3
20260902123202 21 359 1.6 9.7 0.00 0.00 0.00 95 1015.4
20260902122203 21 359 1.6 12.9 0.00 0.00 0.00 95 1015.7
20260902121223 21 359 3.2 20.9 0.00 0.00 0.00 95 1014.7